Regional Weather Roundup
Issued by NWS

Home | Current Version | Previous Version | Text Only | Print | Product List | Glossary Off
Versions: 1 2 3 4 5 6 7 8 9 10 11 12 13 14 15 16 17 18 19 20 21 22 23 24 25 26 27 28 29 30 31 32 33 34 35 36

000
ASUS45 KBOI 221010
RWRID
WEATHER ROUNDUP FOR IDAHO
NATIONAL WEATHER SERVICE BOISE ID
400 AM MDT WED OCT 22 2014

NOTE: "FAIR" INDICATES FEW OR NO CLOUDS BELOW 12000 FEET
WITH NO SIGNIFICANT WEATHER AND/OR OBSTRUCTIONS TO VISIBILITY

IDZ012-014-221100-
SOUTHWEST IDAHO


CITY           SKY/WX    TMP DP  RH WIND       PRES   REMARKS
BOISE          PTCLDY    46  37  71 SE12      30.08S
CALDWELL       PTCLDY    41  30  65 SE5       30.09S
MOUNTAIN HOME  CLOUDY    40  40  99 E8        30.09F WCI  35
$$

IDZ016-017-221100-
SOUTHCENTRAL IDAHO


CITY           SKY/WX    TMP DP  RH WIND       PRES   REMARKS
BURLEY         CLEAR     35  28  75 SW6       30.12R WCI  30
JEROME         PTCLDY    34  30  85 E5        30.12S WCI  30
TWIN FALLS     PTCLDY    39  30  70 S12       30.11S WCI  32
$$

IDZ019>023-221100-
SOUTHEAST IDAHO


CITY           SKY/WX    TMP DP  RH WIND       PRES   REMARKS
IDAHO FALLS    CLEAR     34  30  85 SW7       30.13S WCI  28
POCATELLO      CLEAR     34  31  88 CALM      30.13S
REXBURG        PTCLDY    38  31  76 CALM      30.13R
$$

IDZ006-010-011-018-031-032-221100-
CENTRAL IDAHO MOUNTAINS


CITY           SKY/WX    TMP DP  RH WIND       PRES   REMARKS
MCCALL         CLOUDY    35  35 100 SE3       30.08F FOG
HAILEY         CLEAR     32  28  86 NW12      30.15R WCI  23
STANLEY          N/A     29  28  96 CALM      30.16R
SALMON         MOCLDY   N/A N/A N/A MISG        N/A  VSB 3/4
CHALLIS        CLEAR     32  30  92 CALM      30.13S
$$

IDZ002-004-006-007-026-221100-
NORTHERN IDAHO


CITY           SKY/WX    TMP DP  RH WIND       PRES   REMARKS
LEWISTON       PTCLDY    43  39  86 SE6       29.99F
LOWELL           N/A     46  43  89 CALM      30.09F
COEUR D`ALENE  PTCLDY    45  39  81 CALM      29.98S
MULLAN PASS    FOG       33  33 100 VRB5      30.01S VSB 3/4 WCI  29
$$



USA.gov is the U.S. government's official web portal to all federal, state and local government web resources and services.